This is the latest recevied weather packets stored in our database for station/object VU3ZAG-13. If no packets are shown the sender has not sent any weather packets the latest 1 day(s).
| Time | Temp. | Humidity | Pressure | Rain* | Wind** | Luminosity | Snow |
|---|---|---|---|---|---|---|---|
| 1778000445 | 32.22° C | 45% | - | 0 mm | 1.34 m/s, 276° | - | - |
| 1778000136 | 32.22° C | 45% | - | 0 mm | 1.79 m/s, 320° | - | - |
| 1777999827 | 32.22° C | 45% | - | 0 mm | 1.34 m/s, 317° | - | - |
| 1777999518 | 32.22° C | 44% | - | 0 mm | 1.34 m/s, 288° | - | - |
| 1777999209 | 32.22° C | 45% | - | 0 mm | 1.34 m/s, 315° | - | - |
| 1777998901 | 32.22° C | 45% | - | 0 mm | 1.34 m/s, 292° | - | - |
| 1777998591 | 32.22° C | 44% | - | 0 mm | 2.68 m/s, 285° | - | - |
| 1777998282 | 32.22° C | 45% | - | 0 mm | 2.24 m/s, 334° | - | - |
| 1777997974 | 32.22° C | 45% | - | 0 mm | 1.34 m/s, 323° | - | - |
| 1777997655 | 32.22° C | 44% | - | 0 mm | 1.34 m/s, 324° | - | - |
| 1777997346 | 32.22° C | 44% | - | 0 mm | 1.79 m/s, 286° | - | - |
| 1777997037 | 32.22° C | 44% | - | 0 mm | 1.34 m/s, 271° | - | - |
| 1777996729 | 32.22° C | 44% | - | 0 mm | 1.79 m/s, 279° | - | - |
| 1777996420 | 32.22° C | 44% | - | 0 mm | 1.34 m/s, 310° | - | - |
| 1777996111 | 32.22° C | 43% | - | 0 mm | 1.79 m/s, 279° | - | - |
| 1777995803 | 32.22° C | 43% | - | 0 mm | 2.68 m/s, 303° | - | - |
| 1777995495 | 32.22° C | 42% | - | 0 mm | 1.34 m/s, 324° | - | - |
| 1777995186 | 32.22° C | 42% | - | 0 mm | 2.24 m/s, 313° | - | - |
| 1777994876 | 32.22° C | 42% | - | 0 mm | 1.79 m/s, 338° | - | - |
| 1777994568 | 32.22° C | 42% | - | 0 mm | 2.24 m/s, 288° | - | - |
| 1777994259 | 32.78° C | 42% | - | 0 mm | 2.24 m/s, 319° | - | - |
| 1777993950 | 32.78° C | 42% | - | 0 mm | 3.13 m/s, 329° | - | - |
| 1777993641 | 32.78° C | 41% | - | 0 mm | 1.79 m/s, 317° | - | - |
| 1777993332 | 32.78° C | 42% | - | 0 mm | 1.79 m/s, 303° | - | - |
| 1777993023 | 32.78° C | 41% | - | 0 mm | 1.79 m/s, 266° | - | - |
* Rain since midnight (hover to see other rain measurements)
** Current wind speed in m/s (hover to see current wind gust speed)